Location: Virginia Beach
(36.8530°N, 75.9780°W)
Time: 22:41:10
(UTC-04:00)

ISS - Visible Passes

Search period start: 23 March 2023 00:00
Search period end: 02 April 2023 00:00
Orbit: 414 x 422 km, 51.6° (Epoch: 23 March)

Date Brightness Start Highest point End Pass type
(mag) Time Alt. Az. Time Alt. Az. Time Alt. Az.
26 Mar -0.7 21:35:19 10° N 21:35:26 10° N 21:35:26 10° N visible
28 Mar -1.1 21:35:17 10° NNW 21:36:17 16° NNW 21:36:17 16° NNW visible
29 Mar -1.8 20:47:35 10° NNW 20:49:56 18° NNE 20:50:15 17° NE visible
30 Mar -1.3 20:00:02 10° N 20:01:39 13° NNE 20:03:16 10° NE visible
30 Mar -1.6 21:35:35 10° NW 21:37:09 25° NW 21:37:09 25° NW visible
31 Mar -3.1 20:47:37 10° NW 20:50:47 39° NE 20:51:09 37° NE visible
01 Apr -2.3 19:59:43 10° NNW 20:02:33 25° NNE 20:05:11 11° E visible
01 Apr -1.6 21:36:18 10° WNW 21:38:07 25° W 21:38:07 25° W visible
